Simultaneous Nadir Overpasses (SNOs) Predictions

Prediction of SNOs between AQUA and METOP-C Satellite Orbit:

Table of predicted SNOs for the next 14.0 days since TLE Epoch: 4/24/2020
Index Date (AQUA) Time (AQUA) Lat,Lon (AQUA) SZA (AQUA ) Date (METOP-C) Time (METOP-C) Lat,Lon (METOP-C) SZA (METOP-C ) Distance(km) Time Diff (sec)
1 04/25/2020 15:18:42 -73.74, 124.81 119.77 04/25/2020 15:17:38 -73.73, 124.92 119.78 3.41 64
2 04/25/2020 16:08:11 73.79, -67.66 60.28 04/25/2020 16:08:17 73.79, -67.61 60.28 1.79 6
3 04/25/2020 16:57:42 -74.10, 99.29 119.41 04/25/2020 16:58:52 -74.10, 100.48 119.45 36.38 70
4 04/28/2020 10:52:55 -73.72,-168.71 120.69 04/28/2020 10:52:00 -73.73,-168.66 120.66 2.29 55
5 04/28/2020 11:42:24 73.77, -1.19 59.37 04/28/2020 11:42:39 73.79, -1.20 59.38 1.57 15
6 04/28/2020 12:32:01 -74.38, 165.05 120.00 04/28/2020 12:33:08 -74.40, 167.65 120.05 77.86 67
7 05/01/2020 06:27:09 -73.71,-102.24 121.56 05/01/2020 06:26:23 -73.74,-102.24 121.52 3.81 46
8 05/01/2020 07:16:38 73.77, 65.26 58.50 05/01/2020 07:17:02 73.79, 65.20 58.51 2.70 24
9 05/04/2020 02:01:24 -73.75, -35.90 122.34 05/04/2020 02:00:46 -73.74, -35.83 122.35 2.45 38
10 05/04/2020 02:50:52 73.77, 131.70 57.67 05/04/2020 02:51:25 73.78, 131.60 57.68 3.52 33
11 05/06/2020 21:35:37 -73.75, 30.54 123.14 05/06/2020 21:35:08 -73.75, 30.59 123.14 1.52 29
12 05/06/2020 22:25:06 73.83,-161.99 56.94 05/06/2020 22:25:46 73.82,-161.89 56.93 2.95 40




NCC Satellite Simultaneous Nadir Overpasses (SNOs) Prediction Service
